Weather History for KJES - March, 2014

Change the Weather History Date:

Tuesday, March 11, 2014

  Actual Average (KLHW) Record (KLHW)
Temperature  
Mean Temperature 60 °F -  
Max Temperature 78 °F 72 °F 88 °F (1967)
Min Temperature 42 °F 46 °F 29 °F (1969)
Degree Days  
Heating Degree Days 5    
Growing Degree Days 10 (Base 50)    
Moisture  
Dew Point 53 °F    
Average Humidity 77    
Maximum Humidity 100    
Minimum Humidity 44    
Precipitation  
Precipitation 0.00 in - - ()
Sea Level Pressure  
Sea Level Pressure 29.88 in    
Wind  
Wind Speed 3 mph (WSW)    
Max Wind Speed 12 mph    
Max Gust Speed -    
Visibility 9 miles    
Events      
Averages and records for this station are not official NWS values.
T = Trace of Precipitation, MM = Missing Value Source: NWS Daily Summary

Daily Weather History Graph

Daily Weather History Graph

Search for Another Location

Airport or City:

Trip Planner

Search our weather history database for the weather conditions in past years. The results will help you decide how hot, cold, wet, or windy it might be!

Date:

Astronomy

Mar. 11, 2014 Rise Set
Actual Time 7:42 AM EDT 7:32 PM EDT
Civil Twilight 7:18 AM EDT 7:57 PM EDT
Nautical Twilight 6:50 AM EDT 8:25 PM EDT
Astronomical Twilight 6:21 AM EDT 8:53 PM EDT
Moon 3:20 PM EDT (3/11) 4:21 AM EDT (3/11)
Length of Visible Light 12h 38m
Length of Day
11h 50m
Waxing Gibbous, 78% of the Moon is Illuminated
Mar 11
Waxing Gibbous
Mar 16
Full
Mar 23
Last Quarter
Mar 30
New
Apr 7
First Quarter

Hourly Weather History & Observations

Time (EDT) Temp. Windchill Dew Point Humidity Pressure Visibility Wind Dir Wind Speed Gust Speed Precip Events Conditions
12:15 AM 51.8 °F - 51.8 °F 100% 29.96 in 10.0 mi Calm Calm - N/A   Clear
12:35 AM 51.8 °F - 50.0 °F 94% 29.95 in 10.0 mi Calm Calm - N/A   Clear
12:55 AM 50.0 °F - 50.0 °F 100% 29.95 in 10.0 mi Calm Calm - N/A   Clear
1:15 AM 50.0 °F - 50.0 °F 100% 29.95 in 10.0 mi WSW 5.8 mph - N/A   Clear
1:35 AM 51.8 °F - 51.8 °F 100% 29.94 in 10.0 mi West 3.5 mph - N/A   Clear
1:55 AM 51.8 °F - 50.0 °F 94% 29.94 in 10.0 mi WSW 3.5 mph - N/A   Clear
2:15 AM 51.8 °F - 51.8 °F 100% 29.94 in 10.0 mi West 4.6 mph - N/A   Clear
2:35 AM 51.8 °F - 50.0 °F 94% 29.94 in 10.0 mi WSW 4.6 mph - N/A   Clear
2:55 AM 50.0 °F - 48.2 °F 94% 29.93 in 10.0 mi West 3.5 mph - N/A   Clear
3:15 AM 46.4 °F - 46.4 °F 100% 29.92 in 7.0 mi Calm Calm - N/A   Clear
3:35 AM 46.4 °F 45.2 °F 46.4 °F 100% 29.92 in 5.0 mi West 3.5 mph - N/A   Clear
3:55 AM 46.4 °F 45.2 °F 46.4 °F 100% 29.92 in 5.0 mi West 3.5 mph - N/A   Clear
4:15 AM 46.4 °F - 46.4 °F 100% 29.91 in 5.0 mi Calm Calm - N/A   Clear
4:35 AM 44.6 °F 43.1 °F 44.6 °F 100% 29.91 in 7.0 mi SSW 3.5 mph - N/A   Clear
4:55 AM 46.4 °F - 46.4 °F 100% 29.91 in 10.0 mi Calm Calm - N/A   Clear
5:15 AM 46.4 °F - 46.4 °F 100% 29.91 in 7.0 mi Calm Calm - N/A   Clear
5:35 AM 46.4 °F 45.2 °F 46.4 °F 100% 29.91 in 5.0 mi WSW 3.5 mph - N/A   Clear
5:55 AM 46.4 °F - 46.4 °F 100% 29.92 in 3.0 mi Calm Calm - N/A   Clear
6:15 AM 44.6 °F - 44.6 °F 100% 29.92 in 2.5 mi Calm Calm - N/A   Clear
6:35 AM 44.6 °F 43.1 °F 44.6 °F 100% 29.93 in 4.0 mi SW 3.5 mph - N/A   Clear
6:55 AM 44.6 °F - 44.6 °F 100% 29.93 in 5.0 mi Calm Calm - N/A   Clear
7:15 AM 42.8 °F 41.1 °F 42.8 °F 100% 29.93 in 3.0 mi WSW 3.5 mph - N/A   Clear
7:35 AM 44.6 °F - 44.6 °F 100% 29.92 in 3.0 mi Calm Calm - N/A   Clear
7:55 AM 42.8 °F 41.1 °F 42.8 °F 100% 29.93 in 2.0 mi SW 3.5 mph - N/A   Clear
8:15 AM 44.6 °F 43.1 °F 44.6 °F 100% 29.93 in 3.0 mi SW 3.5 mph - N/A   Clear
8:35 AM 46.4 °F - 46.4 °F 100% 29.93 in 5.0 mi Calm Calm - N/A   Clear
8:55 AM 50.0 °F - 50.0 °F 100% 29.94 in 7.0 mi Calm Calm - N/A   Clear
9:15 AM 53.6 °F - 51.8 °F 94% 29.94 in 10.0 mi Calm Calm - N/A   Clear
9:35 AM 55.4 °F - 53.6 °F 94% 29.94 in 10.0 mi West 5.8 mph - N/A   Clear
9:55 AM 59.0 °F - 53.6 °F 82% 29.95 in 10.0 mi West 3.5 mph - N/A   Clear
10:15 AM 60.8 °F - 55.4 °F 82% 29.95 in 10.0 mi West 3.5 mph - N/A   Clear
10:35 AM 62.6 °F - 55.4 °F 77% 29.95 in 10.0 mi WSW 3.5 mph - N/A   Clear
10:55 AM 64.4 °F - 55.4 °F 73% 29.94 in 10.0 mi SW 3.5 mph - N/A   Clear
11:15 AM 68.0 °F - 57.2 °F 68% 29.94 in 10.0 mi SSW 4.6 mph - N/A   Clear
11:35 AM 69.8 °F - 57.2 °F 64% 29.93 in 10.0 mi WSW 4.6 mph - N/A   Clear
11:55 AM 71.6 °F - 55.4 °F 57% 29.92 in 10.0 mi SW 4.6 mph - N/A   Clear
12:15 PM 71.6 °F - 55.4 °F 57% 29.91 in 10.0 mi WSW 5.8 mph - N/A   Clear
12:35 PM 73.4 °F - 55.4 °F 53% 29.90 in 10.0 mi West 3.5 mph - N/A   Clear
12:50 PM 73.4 °F - 55.4 °F 53% 29.90 in 10.0 mi Calm Calm - N/A   Clear
1:35 PM 77.0 °F - 55.4 °F 47% 29.88 in 10.0 mi WNW 6.9 mph - N/A   Clear
1:55 PM 77.0 °F - 53.6 °F 44% 29.88 in 10.0 mi West 6.9 mph - N/A   Clear
2:15 PM 77.0 °F - 53.6 °F 44% 29.86 in 10.0 mi West 6.9 mph - N/A   Clear
2:35 PM 78.8 °F - 55.4 °F 44% 29.85 in 10.0 mi West 6.9 mph - N/A   Clear
2:55 PM 78.8 °F - 55.4 °F 44% 29.83 in 10.0 mi WNW 5.8 mph - N/A   Clear
3:15 PM 78.8 °F - 55.4 °F 44% 29.83 in 10.0 mi WSW 5.8 mph - N/A   Clear
3:35 PM 78.8 °F - 55.4 °F 44% 29.82 in 10.0 mi West 8.1 mph - N/A   Clear
3:55 PM 78.8 °F - 55.4 °F 44% 29.82 in 10.0 mi SW 6.9 mph - N/A   Clear
4:15 PM 78.8 °F - 55.4 °F 44% 29.81 in 10.0 mi WSW 11.5 mph - N/A   Clear
4:35 PM 78.8 °F - 57.2 °F 47% 29.80 in 10.0 mi West 5.8 mph - N/A   Clear
4:55 PM 78.8 °F - 55.4 °F 44% 29.80 in 10.0 mi West 10.4 mph - N/A   Clear
5:15 PM 78.8 °F - 55.4 °F 44% 29.80 in 10.0 mi SW 8.1 mph - N/A   Clear
5:35 PM 78.8 °F - 55.4 °F 44% 29.80 in 10.0 mi West 5.8 mph - N/A   Clear
5:55 PM 78.8 °F - 57.2 °F 47% 29.80 in 10.0 mi West 3.5 mph - N/A   Clear
6:15 PM 77.0 °F - 55.4 °F 47% 29.80 in 10.0 mi WSW 4.6 mph - N/A   Clear
6:35 PM 77.0 °F - 55.4 °F 47% 29.80 in 10.0 mi SW 4.6 mph - N/A   Clear
6:55 PM 73.4 °F - 57.2 °F 57% 29.80 in 10.0 mi SW 5.8 mph - N/A   Clear
7:15 PM 73.4 °F - 57.2 °F 57% 29.80 in 10.0 mi SW 3.5 mph - N/A   Clear
7:35 PM 71.6 °F - 57.2 °F 60% 29.80 in 10.0 mi Calm Calm - N/A   Clear
7:55 PM 66.2 °F - 59.0 °F 78% 29.81 in 10.0 mi SW 3.5 mph - N/A   Clear
8:15 PM 66.2 °F - 59.0 °F 78% 29.81 in 10.0 mi Calm Calm - N/A   Clear
8:35 PM 64.4 °F - 57.2 °F 77% 29.82 in 10.0 mi Calm Calm - N/A   Clear
8:55 PM 62.6 °F - 57.2 °F 82% 29.82 in 10.0 mi Calm Calm - N/A   Clear
9:15 PM 62.6 °F - 57.2 °F 82% 29.82 in 10.0 mi Calm Calm - N/A   Clear
9:35 PM 62.6 °F - 57.2 °F 82% 29.82 in 10.0 mi Calm Calm - N/A   Clear
9:55 PM 62.6 °F - 57.2 °F 82% 29.81 in 10.0 mi Calm Calm - N/A   Scattered Clouds
10:15 PM 60.8 °F - 55.4 °F 82% 29.82 in 10.0 mi SW 3.5 mph - N/A   Mostly Cloudy
10:35 PM 59.0 °F - 55.4 °F 88% 29.82 in 10.0 mi Calm Calm - N/A   Scattered Clouds
10:55 PM 59.0 °F - 55.4 °F 88% 29.82 in 10.0 mi Calm Calm - N/A   Clear
11:15 PM 60.8 °F - 57.2 °F 88% 29.82 in 10.0 mi SSW 3.5 mph - N/A   Clear
11:35 PM 60.8 °F - 55.4 °F 82% 29.82 in 10.0 mi SW 3.5 mph - N/A   Clear
11:55 PM 60.8 °F - 55.4 °F 82% 29.81 in 10.0 mi SW 3.5 mph - N/A   Scattered Clouds